COSMOS 1275 DEB, 14504

Orbit data source: Space-Track

COSMOS 1275 DEB, 14504 is space debris in LEO originally from a launch on Thu, 04 Jun 1981 UTC launched from the Plesetsk Missile And Space Complex (PKMTR). Debris objects in space refer to the collection of defunct objects orbiting the Earth. Examples of debris include non-operational satellites, rocket bodies, and fragments generated from explosions, collisions, or faulty payload assembly.

Loading next visibility...
Identifier
14504, 1981-053JJ
Orbit
LEO
Country
Flag of CISCIS
Related business
Manufacturer
Unknown
Mission
Spacecraft
Bus & Motor
Unknown
Mass
Unknown
Launch date (UTC)
1981-06-04 (44 years ago)
Launch vehicle
Unknown
Launch site
Plesetsk Missile And Space Complex (PKMTR)
Object type
Payload
Rocket body
Debris
Shape & HBR
Unknown shape, 0.1 m
Radar Cross Section
Small (<0.1 m²)

Expand to show TLE details & history
Last TLE update: 16 hours ago

TLE from 16 hours ago
0 COSMOS 1275 DEB
1 14504U 81053JJ  25292.08298166  .00003354  00000-0  19877-2 0  9990
2 14504  83.1944 156.3966 0021946  43.2244 108.6321 14.07223293248561
Epoch: 2025-10-19T01:59Z
TLE epoch observation values (Epoch: 2025-10-19T01:59:29.615Z)
Latitude
27.73258°
Longitude
-84.85984°
Altitude
877.441 km
Speed
7.413 km/s
True Right ascension
22h 11m 16s
True Declination
27° 35' 37"
Sunlit
Object was in full shadow at epoch
Visualization orbit readout
Latitude
Unknown
Longitude
Unknown
Altitude
Unknown
Speed
Unknown
Apparent Right ascension
Unknown
Apparent Declination
Unknown
Sunlit
N/A
Visualization observer readout
Local Sidereal Time
12:42:07
Azimuth
Unknown
Elevation
Unknown
Doppler factor
Unknown
Orbital elements
Apogee altitude
881.882 km
Perigee altitude
850.086 km
Semi-major axis
7,244.121 km
Eccentricity
0.00219
Inclination
83.1944°
RAAN
156.3966°
Arg. of periapsis
43.2244°
True anomaly
108.87019°
Mean anomaly
108.6321°
Eccentric anomaly
108.75117°
Mean motion
3.52018 °/min
Orbital period
102.27 mins
BSTAR
0.0019877
Loading maneuver chart data...
Computing Atmospheric mass density...

Documentation

Showing up to 5 results
|